Year,Month,Day,Hour,Minute,Value (Times are PST for temperature in C)
2015,05,06,00,00,6.60
2015,05,06,00,01,6.60
2015,05,06,00,02,6.60
2015,05,06,00,03,6.60
2015,05,06,00,04,6.50
2015,05,06,00,05,6.50
2015,05,06,00,06,6.50
2015,05,06,00,07,6.50
2015,05,06,00,08,6.40
2015,05,06,00,09,6.40
2015,05,06,00,10,6.40
2015,05,06,00,11,6.30
2015,05,06,00,12,6.30
2015,05,06,00,13,6.30
2015,05,06,00,14,6.30
2015,05,06,00,15,6.30
2015,05,06,00,16,6.20
2015,05,06,00,17,6.20
2015,05,06,00,18,6.20
2015,05,06,00,19,6.20
2015,05,06,00,20,6.20
2015,05,06,00,21,6.20
2015,05,06,00,22,6.20
2015,05,06,00,23,6.10
2015,05,06,00,24,6.10
2015,05,06,00,25,6.10
2015,05,06,00,26,6.00
2015,05,06,00,27,6.00
2015,05,06,00,28,6.00
2015,05,06,00,29,5.90
2015,05,06,00,30,5.90
2015,05,06,00,31,5.90
2015,05,06,00,32,5.90
2015,05,06,00,33,5.90
2015,05,06,00,34,5.90
2015,05,06,00,35,5.80
2015,05,06,00,36,5.80
2015,05,06,00,37,5.80
2015,05,06,00,38,5.70
2015,05,06,00,39,5.70
2015,05,06,00,40,5.70
2015,05,06,00,41,5.70
2015,05,06,00,42,5.60
2015,05,06,00,43,5.60
2015,05,06,00,44,5.60
2015,05,06,00,45,5.60
2015,05,06,00,46,5.50
2015,05,06,00,47,5.50
2015,05,06,00,48,5.50
2015,05,06,00,49,5.50
2015,05,06,00,50,5.40
2015,05,06,00,51,5.40
2015,05,06,00,52,5.40
2015,05,06,00,53,5.40
2015,05,06,00,54,5.40
2015,05,06,00,55,5.40
2015,05,06,00,56,5.30
2015,05,06,00,57,5.30
2015,05,06,00,58,5.30
2015,05,06,00,59,5.30
2015,05,06,01,00,5.30
2015,05,06,01,01,5.30
2015,05,06,01,02,5.30
2015,05,06,01,03,5.30
2015,05,06,01,04,5.30
2015,05,06,01,05,5.20
2015,05,06,01,06,5.20
2015,05,06,01,07,5.20
2015,05,06,01,08,5.20
2015,05,06,01,09,5.20
2015,05,06,01,10,5.20
2015,05,06,01,11,5.20
2015,05,06,01,12,5.20
2015,05,06,01,13,5.20
2015,05,06,01,14,5.20
2015,05,06,01,15,5.20
2015,05,06,01,16,5.20
2015,05,06,01,17,5.20
2015,05,06,01,18,5.20
2015,05,06,01,19,5.20
2015,05,06,01,20,5.20
2015,05,06,01,21,5.20
2015,05,06,01,22,5.20
2015,05,06,01,23,5.20
2015,05,06,01,24,5.20
2015,05,06,01,25,5.20
2015,05,06,01,26,5.20
2015,05,06,01,27,5.20
2015,05,06,01,28,5.20
2015,05,06,01,29,5.20
2015,05,06,01,30,5.20
2015,05,06,01,31,5.20
2015,05,06,01,32,5.20
2015,05,06,01,33,5.20
2015,05,06,01,34,5.20
2015,05,06,01,35,5.20
2015,05,06,01,36,5.30
2015,05,06,01,37,5.30
2015,05,06,01,38,5.30
2015,05,06,01,39,5.30
2015,05,06,01,40,5.30
2015,05,06,01,41,5.30
2015,05,06,01,42,5.30
2015,05,06,01,43,5.30
2015,05,06,01,44,5.30
2015,05,06,01,45,5.30
2015,05,06,01,46,5.30
2015,05,06,01,47,5.30
2015,05,06,01,48,5.30
2015,05,06,01,49,5.30
2015,05,06,01,50,5.30
2015,05,06,01,51,5.30
2015,05,06,01,52,5.30
2015,05,06,01,53,5.30
2015,05,06,01,54,5.30
2015,05,06,01,55,5.30
2015,05,06,01,56,5.30
2015,05,06,01,57,5.30
2015,05,06,01,58,5.30
2015,05,06,01,59,5.30
2015,05,06,02,00,5.30
2015,05,06,02,01,5.30
2015,05,06,02,02,5.30
2015,05,06,02,03,5.30
2015,05,06,02,04,5.30
2015,05,06,02,05,5.30
2015,05,06,02,06,5.30
2015,05,06,02,07,5.30
2015,05,06,02,08,5.30
2015,05,06,02,09,5.30
2015,05,06,02,10,5.30
2015,05,06,02,11,5.30
2015,05,06,02,12,5.30
2015,05,06,02,13,5.30
2015,05,06,02,14,5.30
2015,05,06,02,15,5.30
2015,05,06,02,16,5.30
2015,05,06,02,17,5.30
2015,05,06,02,18,5.30
2015,05,06,02,19,5.30
2015,05,06,02,20,5.30
2015,05,06,02,21,5.30
2015,05,06,02,22,5.30
2015,05,06,02,23,5.30
2015,05,06,02,24,5.30
2015,05,06,02,25,5.30
2015,05,06,02,26,5.30
2015,05,06,02,27,5.30
2015,05,06,02,28,5.30
2015,05,06,02,29,5.30
2015,05,06,02,30,5.30
2015,05,06,02,31,5.30
2015,05,06,02,32,5.30
2015,05,06,02,33,5.30
2015,05,06,02,34,5.30
2015,05,06,02,35,5.30
2015,05,06,02,36,5.30
2015,05,06,02,37,5.30
2015,05,06,02,38,5.30
2015,05,06,02,39,5.30
2015,05,06,02,40,5.30
2015,05,06,02,41,5.30
2015,05,06,02,42,5.30
2015,05,06,02,43,5.30
2015,05,06,02,44,5.30
2015,05,06,02,45,5.40
2015,05,06,02,46,5.40
2015,05,06,02,47,5.40
2015,05,06,02,48,5.40
2015,05,06,02,49,5.40
2015,05,06,02,50,5.40
2015,05,06,02,51,5.40
2015,05,06,02,52,5.40
2015,05,06,02,53,5.40
2015,05,06,02,54,5.40
2015,05,06,02,55,5.40
2015,05,06,02,56,5.50
2015,05,06,02,57,5.50
2015,05,06,02,58,5.50
2015,05,06,02,59,5.60
2015,05,06,03,00,5.60
2015,05,06,03,01,5.60
2015,05,06,03,02,5.60
2015,05,06,03,03,5.60
2015,05,06,03,04,5.60
2015,05,06,03,05,5.50
2015,05,06,03,06,5.50
2015,05,06,03,07,5.50
2015,05,06,03,08,5.50
2015,05,06,03,09,5.50
2015,05,06,03,10,5.50
2015,05,06,03,11,5.50
2015,05,06,03,12,5.50
2015,05,06,03,13,5.50
2015,05,06,03,14,5.50
2015,05,06,03,15,5.50
2015,05,06,03,16,5.40
2015,05,06,03,17,5.40
2015,05,06,03,18,5.40
2015,05,06,03,19,5.40
2015,05,06,03,20,5.40
2015,05,06,03,21,5.40
2015,05,06,03,22,5.40
2015,05,06,03,23,5.40
2015,05,06,03,24,5.40
2015,05,06,03,25,5.40
2015,05,06,03,26,5.40
2015,05,06,03,27,5.30
2015,05,06,03,28,5.30
2015,05,06,03,29,5.30
2015,05,06,03,30,5.30
2015,05,06,03,31,5.30
2015,05,06,03,32,5.30
2015,05,06,03,33,5.30
2015,05,06,03,34,5.30
2015,05,06,03,35,5.30
2015,05,06,03,36,5.30
2015,05,06,03,37,5.30
2015,05,06,03,38,5.30
2015,05,06,03,39,5.30
2015,05,06,03,40,5.30
2015,05,06,03,41,5.30
2015,05,06,03,42,5.30
2015,05,06,03,43,5.30
2015,05,06,03,44,5.40
2015,05,06,03,45,5.40
2015,05,06,03,46,5.40
2015,05,06,03,47,5.40
2015,05,06,03,48,5.40
2015,05,06,03,49,5.40
2015,05,06,03,50,5.40
2015,05,06,03,51,5.40
2015,05,06,03,52,5.40
2015,05,06,03,53,5.40
2015,05,06,03,54,5.40
2015,05,06,03,55,5.40
2015,05,06,03,56,5.40
2015,05,06,03,57,5.40
2015,05,06,03,58,5.40
2015,05,06,03,59,5.40
2015,05,06,04,00,5.40
2015,05,06,04,01,5.40
2015,05,06,04,02,5.40
2015,05,06,04,03,5.50
2015,05,06,04,04,5.40
2015,05,06,04,05,5.50
2015,05,06,04,06,5.50
2015,05,06,04,07,5.50
2015,05,06,04,08,5.50
2015,05,06,04,09,5.50
2015,05,06,04,10,5.50
2015,05,06,04,11,5.50
2015,05,06,04,12,5.50
2015,05,06,04,13,5.50
2015,05,06,04,14,5.50
2015,05,06,04,15,5.50
2015,05,06,04,16,5.50
2015,05,06,04,17,5.50
2015,05,06,04,18,5.50
2015,05,06,04,19,5.50
2015,05,06,04,20,5.40
2015,05,06,04,21,5.40
2015,05,06,04,22,5.40
2015,05,06,04,23,5.40
2015,05,06,04,24,5.40
2015,05,06,04,25,5.40
2015,05,06,04,26,5.40
2015,05,06,04,27,5.40
2015,05,06,04,28,5.40
2015,05,06,04,29,5.40
2015,05,06,04,30,5.40
2015,05,06,04,31,5.40
2015,05,06,04,32,5.40
2015,05,06,04,33,5.40
2015,05,06,04,34,5.40
2015,05,06,04,35,5.40
2015,05,06,04,36,5.40
2015,05,06,04,37,5.40
2015,05,06,04,38,5.40
2015,05,06,04,39,5.40
2015,05,06,04,40,5.40
2015,05,06,04,41,5.40
2015,05,06,04,42,5.40
2015,05,06,04,43,5.40
2015,05,06,04,44,5.40
2015,05,06,04,45,5.40
2015,05,06,04,46,5.40
2015,05,06,04,47,5.40
2015,05,06,04,48,5.30
2015,05,06,04,49,5.30
2015,05,06,04,50,5.30
2015,05,06,04,51,5.30
2015,05,06,04,52,5.30
2015,05,06,04,53,5.30
2015,05,06,04,54,5.30
2015,05,06,04,55,5.30
2015,05,06,04,56,5.30
2015,05,06,04,57,5.30
2015,05,06,04,58,5.30
2015,05,06,04,59,5.30
2015,05,06,05,00,5.30
2015,05,06,05,01,5.30
2015,05,06,05,02,5.30
2015,05,06,05,03,5.30
2015,05,06,05,04,5.30
2015,05,06,05,05,5.30
2015,05,06,05,06,5.30
2015,05,06,05,07,5.30
2015,05,06,05,08,5.30
2015,05,06,05,09,5.30
2015,05,06,05,10,5.30
2015,05,06,05,11,5.30
2015,05,06,05,12,5.30
2015,05,06,05,13,5.30
2015,05,06,05,14,5.30
2015,05,06,05,15,5.30
2015,05,06,05,16,5.20
2015,05,06,05,17,5.30
2015,05,06,05,18,5.30
2015,05,06,05,19,5.30
2015,05,06,05,20,5.30
2015,05,06,05,21,5.30
2015,05,06,05,22,5.30
2015,05,06,05,23,5.30
2015,05,06,05,24,5.30
2015,05,06,05,25,5.20
2015,05,06,05,26,5.20
2015,05,06,05,27,5.20
2015,05,06,05,28,5.20
2015,05,06,05,29,5.20
2015,05,06,05,30,5.20
2015,05,06,05,31,5.20
2015,05,06,05,32,5.20
2015,05,06,05,33,5.20
2015,05,06,05,34,5.20
2015,05,06,05,35,5.10
2015,05,06,05,36,5.10
2015,05,06,05,37,5.10
2015,05,06,05,38,5.10
2015,05,06,05,39,5.10
2015,05,06,05,40,5.10
2015,05,06,05,41,5.10
2015,05,06,05,42,5.10
2015,05,06,05,43,5.10
2015,05,06,05,44,5.10
2015,05,06,05,45,5.10
2015,05,06,05,46,5.10
2015,05,06,05,47,5.10
2015,05,06,05,48,5.10
2015,05,06,05,49,5.10
2015,05,06,05,50,5.00
2015,05,06,05,51,5.00
2015,05,06,05,52,5.00
2015,05,06,05,53,5.00
2015,05,06,05,54,5.00
2015,05,06,05,55,5.00
2015,05,06,05,56,4.90
2015,05,06,05,57,4.90
2015,05,06,05,58,4.90
2015,05,06,05,59,4.90
2015,05,06,06,00,4.90
2015,05,06,06,01,4.90
2015,05,06,06,02,4.90
2015,05,06,06,03,4.90
2015,05,06,06,04,4.90
2015,05,06,06,05,4.80
2015,05,06,06,06,4.80
2015,05,06,06,07,4.80
2015,05,06,06,08,4.80
2015,05,06,06,09,4.80
2015,05,06,06,10,4.80
2015,05,06,06,11,4.80
2015,05,06,06,12,4.80
2015,05,06,06,13,4.80
2015,05,06,06,14,4.80
2015,05,06,06,15,4.80
2015,05,06,06,16,4.80
2015,05,06,06,17,4.80
2015,05,06,06,18,4.80
2015,05,06,06,19,4.80
2015,05,06,06,20,4.80
2015,05,06,06,21,4.80
2015,05,06,06,22,4.80
2015,05,06,06,23,4.70
2015,05,06,06,24,4.70
2015,05,06,06,25,4.70
2015,05,06,06,26,4.70
2015,05,06,06,27,4.70
2015,05,06,06,28,4.70
2015,05,06,06,29,4.70
2015,05,06,06,30,4.70
2015,05,06,06,31,4.70
2015,05,06,06,32,4.70
2015,05,06,06,33,4.70
2015,05,06,06,34,4.70
2015,05,06,06,35,4.70
2015,05,06,06,36,4.70
2015,05,06,06,37,4.70
2015,05,06,06,38,4.60
2015,05,06,06,39,4.60
2015,05,06,06,40,4.60
2015,05,06,06,41,4.60
2015,05,06,06,42,4.60
2015,05,06,06,43,4.60
2015,05,06,06,44,4.60
2015,05,06,06,45,4.60
2015,05,06,06,46,4.60
2015,05,06,06,47,4.60
2015,05,06,06,48,4.60
2015,05,06,06,49,4.60
2015,05,06,06,50,4.60
2015,05,06,06,51,4.60
2015,05,06,06,52,4.60
2015,05,06,06,53,4.60
2015,05,06,06,54,4.60
2015,05,06,06,55,4.60
2015,05,06,06,56,4.60
2015,05,06,06,57,4.60
2015,05,06,06,58,4.70
2015,05,06,06,59,4.70
2015,05,06,07,00,4.70
2015,05,06,07,01,4.70
2015,05,06,07,02,4.70
2015,05,06,07,03,4.70
2015,05,06,07,04,4.70
2015,05,06,07,05,4.70
2015,05,06,07,06,4.70
2015,05,06,07,07,4.70
2015,05,06,07,08,4.70
2015,05,06,07,09,4.70
2015,05,06,07,10,4.70
2015,05,06,07,11,4.70
2015,05,06,07,12,4.70
2015,05,06,07,13,4.70
2015,05,06,07,14,4.70
2015,05,06,07,15,4.70
2015,05,06,07,16,4.70
2015,05,06,07,17,4.80
2015,05,06,07,18,4.80
2015,05,06,07,19,4.80
2015,05,06,07,20,4.80
2015,05,06,07,21,4.80
2015,05,06,07,22,4.80
2015,05,06,07,23,4.80
2015,05,06,07,24,4.80
2015,05,06,07,25,4.80
2015,05,06,07,26,4.80
2015,05,06,07,27,4.80
2015,05,06,07,28,4.80
2015,05,06,07,29,4.80
2015,05,06,07,30,4.80
2015,05,06,07,31,4.80
2015,05,06,07,32,4.80
2015,05,06,07,33,4.80
2015,05,06,07,34,4.80
2015,05,06,07,35,4.80
2015,05,06,07,36,4.80
2015,05,06,07,37,4.80
2015,05,06,07,38,4.80
2015,05,06,07,39,4.80
2015,05,06,07,40,4.80
2015,05,06,07,41,4.90
2015,05,06,07,42,4.90
2015,05,06,07,43,4.90
2015,05,06,07,44,4.90
2015,05,06,07,45,4.90
2015,05,06,07,46,4.90
2015,05,06,07,47,4.90
2015,05,06,07,48,5.00
2015,05,06,07,49,5.00
2015,05,06,07,50,5.00
2015,05,06,07,51,5.00
2015,05,06,07,52,5.10
2015,05,06,07,53,5.10
2015,05,06,07,54,5.10
2015,05,06,07,55,5.10
2015,05,06,07,56,5.10
2015,05,06,07,57,5.10
2015,05,06,07,58,5.10
2015,05,06,07,59,5.10
2015,05,06,08,00,5.10
2015,05,06,08,01,5.10
2015,05,06,08,02,5.10
2015,05,06,08,03,5.10
2015,05,06,08,04,5.10
2015,05,06,08,05,5.10
2015,05,06,08,06,5.10
2015,05,06,08,07,5.10
2015,05,06,08,08,5.10
2015,05,06,08,09,5.10
2015,05,06,08,10,5.10
2015,05,06,08,11,5.10
2015,05,06,08,12,5.10
2015,05,06,08,13,5.10
2015,05,06,08,14,5.10
2015,05,06,08,15,5.10
2015,05,06,08,16,5.10
2015,05,06,08,17,5.20
2015,05,06,08,18,5.20
2015,05,06,08,19,5.20
2015,05,06,08,20,5.20
2015,05,06,08,21,5.30
2015,05,06,08,22,5.30
2015,05,06,08,23,5.30
2015,05,06,08,24,5.40
2015,05,06,08,25,5.50
2015,05,06,08,26,5.50
2015,05,06,08,27,5.60
2015,05,06,08,28,5.60
2015,05,06,08,29,5.70
2015,05,06,08,30,5.70
2015,05,06,08,31,5.70
2015,05,06,08,32,5.80
2015,05,06,08,33,5.80
2015,05,06,08,34,5.90
2015,05,06,08,35,6.00
2015,05,06,08,36,6.00
2015,05,06,08,37,6.10
2015,05,06,08,38,6.20
2015,05,06,08,39,6.30
2015,05,06,08,40,6.40
2015,05,06,08,41,6.40
2015,05,06,08,42,6.50
2015,05,06,08,43,6.50
2015,05,06,08,44,6.60
2015,05,06,08,45,6.60
2015,05,06,08,46,6.60
2015,05,06,08,47,6.60
2015,05,06,08,48,6.70
2015,05,06,08,49,6.70
2015,05,06,08,50,6.80
2015,05,06,08,51,6.80
2015,05,06,08,52,6.90
2015,05,06,08,53,7.00
2015,05,06,08,54,7.00
2015,05,06,08,55,7.10
2015,05,06,08,56,7.20
2015,05,06,08,57,7.20
2015,05,06,08,58,7.30
2015,05,06,08,59,7.40
2015,05,06,09,00,7.40
2015,05,06,09,01,7.50
2015,05,06,09,02,7.60
2015,05,06,09,03,7.60
2015,05,06,09,04,7.70
2015,05,06,09,05,7.70
2015,05,06,09,06,7.70
2015,05,06,09,07,7.70
2015,05,06,09,08,7.70
2015,05,06,09,09,7.80
2015,05,06,09,10,7.90
2015,05,06,09,11,7.90
2015,05,06,09,12,7.90
2015,05,06,09,13,7.90
2015,05,06,09,14,7.90
2015,05,06,09,15,7.90
2015,05,06,09,16,7.80
2015,05,06,09,17,7.80
2015,05,06,09,18,7.80
2015,05,06,09,19,7.80
2015,05,06,09,20,7.80
2015,05,06,09,21,7.80
2015,05,06,09,22,7.90
2015,05,06,09,23,8.00
2015,05,06,09,24,8.10
2015,05,06,09,25,8.10
2015,05,06,09,26,8.10
2015,05,06,09,27,8.10
2015,05,06,09,28,8.00
2015,05,06,09,29,8.00
2015,05,06,09,30,8.10
2015,05,06,09,31,8.10
2015,05,06,09,32,8.10
2015,05,06,09,33,8.20
2015,05,06,09,34,8.30
2015,05,06,09,35,8.50
2015,05,06,09,36,8.60
2015,05,06,09,37,8.70
2015,05,06,09,38,8.80
2015,05,06,09,39,8.90
2015,05,06,09,40,8.90
2015,05,06,09,41,8.90
2015,05,06,09,42,8.90
2015,05,06,09,43,9.00
2015,05,06,09,44,9.10
2015,05,06,09,45,9.20
2015,05,06,09,46,9.30
2015,05,06,09,47,9.40
2015,05,06,09,48,9.50
2015,05,06,09,49,9.50
2015,05,06,09,50,9.40
2015,05,06,09,51,9.40
2015,05,06,09,52,9.30
2015,05,06,09,53,9.30
2015,05,06,09,54,9.30
2015,05,06,09,55,9.30
2015,05,06,09,56,9.30
2015,05,06,09,57,9.30
2015,05,06,09,58,9.40
2015,05,06,09,59,9.40
2015,05,06,10,00,9.50
2015,05,06,10,01,9.60
2015,05,06,10,02,9.60
2015,05,06,10,03,9.60
2015,05,06,10,04,9.60
2015,05,06,10,05,9.70
2015,05,06,10,06,9.80
2015,05,06,10,07,9.80
2015,05,06,10,08,9.80
2015,05,06,10,09,9.90
2015,05,06,10,10,10.00
2015,05,06,10,11,10.10
2015,05,06,10,12,10.20
2015,05,06,10,13,10.30
2015,05,06,10,14,10.40
2015,05,06,10,15,10.50
2015,05,06,10,16,10.60
2015,05,06,10,17,10.70
2015,05,06,10,18,10.80
2015,05,06,10,19,10.90
2015,05,06,10,20,11.00
2015,05,06,10,21,11.10
2015,05,06,10,22,11.20
2015,05,06,10,23,11.20
2015,05,06,10,24,11.20
2015,05,06,10,25,11.10
2015,05,06,10,26,11.10
2015,05,06,10,27,11.00
2015,05,06,10,28,11.00
2015,05,06,10,29,11.10
2015,05,06,10,30,11.10
2015,05,06,10,31,11.10
2015,05,06,10,32,11.20
2015,05,06,10,33,11.20
2015,05,06,10,34,11.20
2015,05,06,10,35,11.20
2015,05,06,10,36,11.30
2015,05,06,10,37,11.30
2015,05,06,10,38,11.40
2015,05,06,10,39,11.50
2015,05,06,10,40,11.60
2015,05,06,10,41,11.60
2015,05,06,10,42,11.60
2015,05,06,10,43,11.60
2015,05,06,10,44,11.70
2015,05,06,10,45,11.70
2015,05,06,10,46,11.70
2015,05,06,10,47,11.70
2015,05,06,10,48,11.80
2015,05,06,10,49,11.80
2015,05,06,10,50,11.90
2015,05,06,10,51,11.90
2015,05,06,10,52,11.90
2015,05,06,10,53,11.90
2015,05,06,10,54,12.00
2015,05,06,10,55,12.00
2015,05,06,10,56,12.10
2015,05,06,10,57,12.10
2015,05,06,10,58,12.20
2015,05,06,10,59,12.20
2015,05,06,11,00,12.30
2015,05,06,11,01,12.40
2015,05,06,11,02,12.40
2015,05,06,11,03,12.40
2015,05,06,11,04,12.50
2015,05,06,11,05,12.50
2015,05,06,11,06,12.40
2015,05,06,11,07,12.50
2015,05,06,11,08,12.60
2015,05,06,11,09,12.70
2015,05,06,11,10,12.80
2015,05,06,11,11,12.90
2015,05,06,11,12,13.00
2015,05,06,11,13,13.10
2015,05,06,11,14,13.10
2015,05,06,11,15,13.10
2015,05,06,11,16,13.10
2015,05,06,11,17,13.10
2015,05,06,11,18,13.00
2015,05,06,11,19,13.00
2015,05,06,11,20,12.90
2015,05,06,11,21,12.90
2015,05,06,11,22,12.90
2015,05,06,11,23,12.90
2015,05,06,11,24,12.90
2015,05,06,11,25,13.00
2015,05,06,11,26,13.10
2015,05,06,11,27,13.20
2015,05,06,11,28,13.30
2015,05,06,11,29,13.30
2015,05,06,11,30,13.40
2015,05,06,11,31,13.50
2015,05,06,11,32,13.60
2015,05,06,11,33,13.60
2015,05,06,11,34,13.60
2015,05,06,11,35,13.60
2015,05,06,11,36,13.60
2015,05,06,11,37,13.60
2015,05,06,11,38,13.60
2015,05,06,11,39,13.60
2015,05,06,11,40,13.60
2015,05,06,11,41,13.70
2015,05,06,11,42,13.70
2015,05,06,11,43,13.80
2015,05,06,11,44,13.80
2015,05,06,11,45,13.90
2015,05,06,11,46,14.00
2015,05,06,11,47,14.10
2015,05,06,11,48,14.20
2015,05,06,11,49,14.30
2015,05,06,11,50,14.50
2015,05,06,11,51,14.50
2015,05,06,11,52,14.60
2015,05,06,11,53,14.60
2015,05,06,11,54,14.60
2015,05,06,11,55,14.60
2015,05,06,11,56,14.70
2015,05,06,11,57,14.80
2015,05,06,11,58,14.80
2015,05,06,11,59,14.90
2015,05,06,12,00,15.00
2015,05,06,12,01,15.10
2015,05,06,12,02,15.10
2015,05,06,12,03,15.20
2015,05,06,12,04,15.30
2015,05,06,12,05,15.30
2015,05,06,12,06,15.40
2015,05,06,12,07,15.50
2015,05,06,12,08,15.40
2015,05,06,12,09,15.40
2015,05,06,12,10,15.40
2015,05,06,12,11,15.40
2015,05,06,12,12,15.40
2015,05,06,12,13,15.40
2015,05,06,12,14,15.40
2015,05,06,12,15,15.50
2015,05,06,12,16,15.50
2015,05,06,12,17,15.50
2015,05,06,12,18,15.60
2015,05,06,12,19,15.60
2015,05,06,12,20,15.60
2015,05,06,12,21,15.70
2015,05,06,12,22,15.80
2015,05,06,12,23,15.90
2015,05,06,12,24,15.90
2015,05,06,12,25,16.00
2015,05,06,12,26,16.10
2015,05,06,12,27,16.20
2015,05,06,12,28,16.20
2015,05,06,12,29,16.20
2015,05,06,12,30,16.20
2015,05,06,12,31,16.20
2015,05,06,12,32,16.20
2015,05,06,12,33,16.30
2015,05,06,12,34,16.30
2015,05,06,12,35,16.40
2015,05,06,12,36,16.40
2015,05,06,12,37,16.40
2015,05,06,12,38,16.50
2015,05,06,12,39,16.50
2015,05,06,12,40,16.50
2015,05,06,12,41,16.60
2015,05,06,12,42,16.70
2015,05,06,12,43,16.70
2015,05,06,12,44,16.80
2015,05,06,12,45,16.80
2015,05,06,12,46,16.90
2015,05,06,12,47,16.90
2015,05,06,12,48,17.10
2015,05,06,12,49,17.20
2015,05,06,12,50,17.30
2015,05,06,12,51,17.50
2015,05,06,12,52,17.60
2015,05,06,12,53,17.60
2015,05,06,12,54,17.50
2015,05,06,12,55,17.40
2015,05,06,12,56,17.30
2015,05,06,12,57,17.30
2015,05,06,12,58,17.20
2015,05,06,12,59,17.30
2015,05,06,13,00,17.40
2015,05,06,13,01,17.50
2015,05,06,13,02,17.60
2015,05,06,13,03,17.70
2015,05,06,13,04,17.80
2015,05,06,13,05,17.80
2015,05,06,13,06,17.80
2015,05,06,13,07,17.90
2015,05,06,13,08,18.00
2015,05,06,13,09,18.10
2015,05,06,13,10,18.20
2015,05,06,13,11,18.10
2015,05,06,13,12,17.90
2015,05,06,13,13,17.70
2015,05,06,13,14,17.50
2015,05,06,13,15,17.30
2015,05,06,13,16,17.20
2015,05,06,13,17,17.10
2015,05,06,13,18,17.10
2015,05,06,13,19,17.00
2015,05,06,13,20,17.00
2015,05,06,13,21,16.90
2015,05,06,13,22,16.90
2015,05,06,13,23,17.00
2015,05,06,13,24,17.00
2015,05,06,13,25,17.10
2015,05,06,13,26,17.10
2015,05,06,13,27,17.10
2015,05,06,13,28,17.10
2015,05,06,13,29,17.10
2015,05,06,13,30,17.10
2015,05,06,13,31,17.20
2015,05,06,13,32,17.20
2015,05,06,13,33,17.20
2015,05,06,13,34,17.20
2015,05,06,13,35,17.20
2015,05,06,13,36,17.20
2015,05,06,13,37,17.20
2015,05,06,13,38,17.20
2015,05,06,13,39,17.10
2015,05,06,13,40,17.10
2015,05,06,13,41,17.10
2015,05,06,13,42,17.10
2015,05,06,13,43,17.00
2015,05,06,13,44,17.00
2015,05,06,13,45,17.00
2015,05,06,13,46,17.10
2015,05,06,13,47,17.10
2015,05,06,13,48,17.20
2015,05,06,13,49,17.30
2015,05,06,13,50,17.40
2015,05,06,13,51,17.50
2015,05,06,13,52,17.70
2015,05,06,13,53,17.90
2015,05,06,13,54,18.10
2015,05,06,13,55,18.20
2015,05,06,13,56,18.30
2015,05,06,13,57,18.20
2015,05,06,13,58,18.10
2015,05,06,13,59,18.10
2015,05,06,14,00,18.10
2015,05,06,14,01,18.10
2015,05,06,14,02,18.10
2015,05,06,14,03,18.20
2015,05,06,14,04,18.20
2015,05,06,14,05,18.20
2015,05,06,14,06,18.20
2015,05,06,14,07,18.20
2015,05,06,14,08,18.20
2015,05,06,14,09,18.30
2015,05,06,14,10,18.30
2015,05,06,14,11,18.20
2015,05,06,14,12,18.20
2015,05,06,14,13,18.10
2015,05,06,14,14,18.00
2015,05,06,14,15,17.90
2015,05,06,14,16,17.80
2015,05,06,14,17,17.70
2015,05,06,14,18,17.60
2015,05,06,14,19,17.60
2015,05,06,14,20,17.50
2015,05,06,14,21,17.50
2015,05,06,14,22,17.50
2015,05,06,14,23,17.50
2015,05,06,14,24,17.50
2015,05,06,14,25,17.50
2015,05,06,14,26,17.50
2015,05,06,14,27,17.60
2015,05,06,14,28,17.70
2015,05,06,14,29,17.70
2015,05,06,14,30,17.70
2015,05,06,14,31,17.70
2015,05,06,14,32,17.70
2015,05,06,14,33,17.70
2015,05,06,14,34,17.60
2015,05,06,14,35,17.70
2015,05,06,14,36,17.70
2015,05,06,14,37,17.80
2015,05,06,14,38,17.90
2015,05,06,14,39,18.00
2015,05,06,14,40,18.10
2015,05,06,14,41,18.20
2015,05,06,14,42,18.10
2015,05,06,14,43,18.10
2015,05,06,14,44,18.10
2015,05,06,14,45,18.00
2015,05,06,14,46,18.00
2015,05,06,14,47,18.00
2015,05,06,14,48,18.00
2015,05,06,14,49,18.00
2015,05,06,14,50,18.00
2015,05,06,14,51,18.00
2015,05,06,14,52,17.90
2015,05,06,14,53,17.90
2015,05,06,14,54,17.90
2015,05,06,14,55,17.90
2015,05,06,14,56,17.90
2015,05,06,14,57,18.00
2015,05,06,14,58,18.00
2015,05,06,14,59,18.10
2015,05,06,15,00,18.10
2015,05,06,15,01,18.20
2015,05,06,15,02,18.20
2015,05,06,15,03,18.30
2015,05,06,15,04,18.30
2015,05,06,15,05,18.30
2015,05,06,15,06,18.30
2015,05,06,15,07,18.30
2015,05,06,15,08,18.20
2015,05,06,15,09,18.20
2015,05,06,15,10,18.20
2015,05,06,15,11,18.20
2015,05,06,15,12,18.20
2015,05,06,15,13,18.20
2015,05,06,15,14,18.30
2015,05,06,15,15,18.30
2015,05,06,15,16,18.40
2015,05,06,15,17,18.50
2015,05,06,15,18,18.50
2015,05,06,15,19,18.60
2015,05,06,15,20,18.60
2015,05,06,15,21,18.60
2015,05,06,15,22,18.50
2015,05,06,15,23,18.40
2015,05,06,15,24,18.50
2015,05,06,15,25,18.50
2015,05,06,15,26,18.50
2015,05,06,15,27,18.50
2015,05,06,15,28,18.50
2015,05,06,15,29,18.60
2015,05,06,15,30,18.60
2015,05,06,15,31,18.60
2015,05,06,15,32,18.50
2015,05,06,15,33,18.50
2015,05,06,15,34,18.50
2015,05,06,15,35,18.50
2015,05,06,15,36,18.60
2015,05,06,15,37,18.70
2015,05,06,15,38,18.80
2015,05,06,15,39,18.80
2015,05,06,15,40,18.80
2015,05,06,15,41,18.80
2015,05,06,15,42,18.80
2015,05,06,15,43,18.70
2015,05,06,15,44,18.70
2015,05,06,15,45,18.70
2015,05,06,15,46,18.70
2015,05,06,15,47,18.70
2015,05,06,15,48,18.80
2015,05,06,15,49,18.80
2015,05,06,15,50,18.80
2015,05,06,15,51,18.80
2015,05,06,15,52,18.90
2015,05,06,15,53,18.90
2015,05,06,15,54,19.00
2015,05,06,15,55,19.00
2015,05,06,15,56,19.10
2015,05,06,15,57,19.00
2015,05,06,15,58,19.00
2015,05,06,15,59,19.00
2015,05,06,16,00,18.90
2015,05,06,16,01,18.90
2015,05,06,16,02,18.90
2015,05,06,16,03,18.80
2015,05,06,16,04,18.80
2015,05,06,16,05,18.80
2015,05,06,16,06,18.80
2015,05,06,16,07,18.80
2015,05,06,16,08,18.80
2015,05,06,16,09,18.70
2015,05,06,16,10,18.60
2015,05,06,16,11,18.60
2015,05,06,16,12,18.60
2015,05,06,16,13,18.50
2015,05,06,16,14,18.50
2015,05,06,16,15,18.50
2015,05,06,16,16,18.50
2015,05,06,16,17,18.50
2015,05,06,16,18,18.50
2015,05,06,16,19,18.50
2015,05,06,16,20,18.50
2015,05,06,16,21,18.60
2015,05,06,16,22,18.60
2015,05,06,16,23,18.70
2015,05,06,16,24,18.70
2015,05,06,16,25,18.80
2015,05,06,16,26,18.90
2015,05,06,16,27,18.90
2015,05,06,16,28,18.90
2015,05,06,16,29,18.90
2015,05,06,16,30,18.90
2015,05,06,16,31,18.80
2015,05,06,16,32,18.70
2015,05,06,16,33,18.60
2015,05,06,16,34,18.60
2015,05,06,16,35,18.50
2015,05,06,16,36,18.60
2015,05,06,16,37,18.60
2015,05,06,16,38,18.50
2015,05,06,16,39,18.50
2015,05,06,16,40,18.50
2015,05,06,16,41,18.40
2015,05,06,16,42,18.40
2015,05,06,16,43,18.30
2015,05,06,16,44,18.30
2015,05,06,16,45,18.20
2015,05,06,16,46,18.20
2015,05,06,16,47,18.30
2015,05,06,16,48,18.30
2015,05,06,16,49,18.20
2015,05,06,16,50,18.20
2015,05,06,16,51,18.10
2015,05,06,16,52,18.00
2015,05,06,16,53,17.90
2015,05,06,16,54,17.90
2015,05,06,16,55,17.90
2015,05,06,16,56,17.80
2015,05,06,16,57,17.80
2015,05,06,16,58,17.80
2015,05,06,16,59,17.80
2015,05,06,17,00,17.80
2015,05,06,17,01,17.80
2015,05,06,17,02,17.80
2015,05,06,17,03,17.70
2015,05,06,17,04,17.70
2015,05,06,17,05,17.70
2015,05,06,17,06,17.70
2015,05,06,17,07,17.70
2015,05,06,17,08,17.70
2015,05,06,17,09,17.70
2015,05,06,17,10,17.70
2015,05,06,17,11,17.70
2015,05,06,17,12,17.70
2015,05,06,17,13,17.70
2015,05,06,17,14,17.70
2015,05,06,17,15,17.70
2015,05,06,17,16,17.60
2015,05,06,17,17,17.60
2015,05,06,17,18,17.50
2015,05,06,17,19,17.50
2015,05,06,17,20,17.60
2015,05,06,17,21,17.50
2015,05,06,17,22,17.60
2015,05,06,17,23,17.60
2015,05,06,17,24,17.60
2015,05,06,17,25,17.70
2015,05,06,17,26,17.80
2015,05,06,17,27,17.90
2015,05,06,17,28,17.90
2015,05,06,17,29,18.00
2015,05,06,17,30,18.10
2015,05,06,17,31,18.10
2015,05,06,17,32,18.10
2015,05,06,17,33,18.10
2015,05,06,17,34,18.10
2015,05,06,17,35,18.10
2015,05,06,17,36,18.00
2015,05,06,17,37,17.90
2015,05,06,17,38,17.90
2015,05,06,17,39,17.80
2015,05,06,17,40,17.80
2015,05,06,17,41,17.80
2015,05,06,17,42,17.80
2015,05,06,17,43,17.80
2015,05,06,17,44,17.90
2015,05,06,17,45,17.90